When you browse on this site, cookies collect data to enhance your experience and personalize the content and advertising you see.
Visit our Privacy Policy to learn more. By continuing to use the site, you agree to this use of cookies and data.
  • In United Kingdom
  • List of Countries
  • For 7 days
  • Water Temperature
  • Weather Map
  • Weather Widgets
  • user-avatar
    Login

    Hourly Weather Serowe

    Today, 21 January, Tuesday

    Time Temperature Precipitation Wind Pressure Humidity
    00:00 +19°C° 0 mm 4 mps 667 mmHg 83%
    01:00 +18°C° 0 mm 4 mps 667 mmHg 83%
    02:00 +18°C° 0 mm 4 mps 667 mmHg 84%
    03:00 +17°C° 0 mm 5 mps 667 mmHg 84%
    04:00 +17°C° 0 mm 5 mps 667 mmHg 83%
    05:00 +17°C° 0 mm 6 mps 666 mmHg 83%
    06:00 +17°C° 0 mm 5 mps 667 mmHg 79%
    07:00 +19°C° 0 mm 5 mps 667 mmHg 75%
    08:00 +19°C° 0 mm 5 mps 668 mmHg 71%
    09:00 +22°C° 0 mm 5 mps 668 mmHg 62%
    10:00 +25°C° 0 mm 4 mps 668 mmHg 54%
    11:00 +27°C° 0 mm 4 mps 668 mmHg 45%
    12:00 +29°C° 0 mm 4 mps 668 mmHg 41%
    13:00 +30°C° 0 mm 4 mps 668 mmHg 37%
    14:00 +33°C° 0 mm 3 mps 667 mmHg 32%
    15:00 +33°C° 0 mm 3 mps 667 mmHg 32%
    16:00 +33°C° 0 mm 3 mps 666 mmHg 32%
    17:00 +33°C° 0 mm 3 mps 666 mmHg 31%
    18:00 +30°C° 0 mm 3 mps 666 mmHg 37%
    19:00 +28°C° 0 mm 3 mps 666 mmHg 42%
    20:00 +26°C° 0 mm 3 mps 665 mmHg 47%
    21:00 +25°C° 0 mm 3 mps 665 mmHg 51%
    22:00 +24°C° 0 mm 3 mps 665 mmHg 55%
    23:00 +22°C° 0 mm 3 mps 666 mmHg 58%

    Tomorrow, 22 January, Wednesday

    Time Temperature Precipitation Wind Pressure Humidity
    00:00 +22°C° 0 mm 3 mps 665 mmHg 59%
    01:00 +21°C° 0 mm 3 mps 665 mmHg 60%
    02:00 +21°C° 0 mm 4 mps 665 mmHg 61%
    03:00 +20°C° 0 mm 3 mps 665 mmHg 64%
    04:00 +20°C° 0 mm 3 mps 665 mmHg 67%
    05:00 +19°C° 0 mm 3 mps 665 mmHg 70%
    06:00 +20°C° 0 mm 3 mps 665 mmHg 67%
    07:00 +21°C° 0 mm 4 mps 666 mmHg 63%
    08:00 +22°C° 0 mm 4 mps 666 mmHg 60%
    09:00 +26°C° 0 mm 4 mps 667 mmHg 53%
    10:00 +28°C° 0 mm 3 mps 667 mmHg 46%
    11:00 +30°C° 0 mm 3 mps 667 mmHg 39%
    12:00 +33°C° 0 mm 3 mps 667 mmHg 35%
    13:00 +34°C° 0 mm 3 mps 666 mmHg 32%
    14:00 +36°C° 0 mm 2 mps 665 mmHg 28%
    15:00 +35°C° 0 mm 2 mps 665 mmHg 31%
    16:00 +34°C° 0 mm 3 mps 664 mmHg 33%
    17:00 +33°C° 0 mm 3 mps 664 mmHg 36%
    18:00 +30°C° 0.1 mm 3 mps 664 mmHg 42%
    19:00 +28°C° 0.1 mm 4 mps 664 mmHg 49%
    20:00 +26°C° 0.1 mm 4 mps 664 mmHg 55%
    21:00 +26°C° 0.1 mm 4 mps 664 mmHg 57%
    22:00 +26°C° 0.1 mm 3 mps 664 mmHg 58%
    23:00 +25°C° 0.1 mm 3 mps 664 mmHg 60%

    Day after tomorrow, 23 January, Thursday

    Time Temperature Precipitation Wind Pressure Humidity
    00:00 +25°C° 0 mm 3 mps 664 mmHg 60%
    01:00 +25°C° 0 mm 3 mps 664 mmHg 61%
    02:00 +24°C° 0 mm 2 mps 663 mmHg 61%
    03:00 +24°C° 0 mm 2 mps 663 mmHg 61%
    04:00 +24°C° 0 mm 2 mps 663 mmHg 60%
    05:00 +24°C° 0 mm 2 mps 663 mmHg 60%
    06:00 +25°C° 0 mm 2 mps 664 mmHg 55%
    07:00 +27°C° 0 mm 3 mps 665 mmHg 49%
    08:00 +28°C° 0 mm 3 mps 665 mmHg 43%
    09:00 +30°C° 0 mm 3 mps 666 mmHg 38%
    10:00 +33°C° 0 mm 3 mps 666 mmHg 32%
    11:00 +35°C° 0 mm 3 mps 666 mmHg 27%
    12:00 +36°C° 0 mm 3 mps 666 mmHg 26%
    13:00 +36°C° 0 mm 3 mps 665 mmHg 25%
    14:00 +36°C° 0 mm 2 mps 665 mmHg 24%
    15:00 +34°C° 0.1 mm 3 mps 664 mmHg 30%
    16:00 +32°C° 0.1 mm 4 mps 663 mmHg 35%
    17:00 +29°C° 0.1 mm 5 mps 663 mmHg 40%
    18:00 +29°C° 0 mm 4 mps 663 mmHg 41%
    19:00 +29°C° 0 mm 2 mps 664 mmHg 41%
    20:00 +28°C° 0 mm 1 mps 664 mmHg 41%
    21:00 +27°C° 0.2 mm 2 mps 665 mmHg 46%
    22:00 +27°C° 0.2 mm 2 mps 665 mmHg 51%
    23:00 +26°C° 0.2 mm 3 mps 665 mmHg 56%

    24 January, Friday

    Time Temperature Precipitation Wind Pressure Humidity
    00:00 +25°C° 0.4 mm 3 mps 665 mmHg 59%
    01:00 +24°C° 0.4 mm 3 mps 665 mmHg 62%
    02:00 +24°C° 0.4 mm 3 mps 665 mmHg 65%
    03:00 +22°C° 0.3 mm 3 mps 665 mmHg 68%
    04:00 +22°C° 0.3 mm 3 mps 665 mmHg 71%
    05:00 +21°C° 0.3 mm 3 mps 665 mmHg 73%
    06:00 +22°C° 0 mm 4 mps 666 mmHg 73%
    07:00 +22°C° 0 mm 6 mps 666 mmHg 72%
    08:00 +23°C° 0 mm 7 mps 667 mmHg 71%
    09:00 +26°C° 0 mm 7 mps 667 mmHg 63%
    10:00 +28°C° 0 mm 6 mps 668 mmHg 54%
    11:00 +30°C° 0 mm 6 mps 668 mmHg 45%
    12:00 +32°C° 0.1 mm 6 mps 668 mmHg 42%
    13:00 +33°C° 0.1 mm 5 mps 667 mmHg 38%
    14:00 +34°C° 0.1 mm 5 mps 667 mmHg 35%
    15:00 +32°C° 0.1 mm 4 mps 666 mmHg 39%
    16:00 +30°C° 0.1 mm 4 mps 665 mmHg 44%
    17:00 +28°C° 0.1 mm 3 mps 664 mmHg 49%
    18:00 +27°C° 0.1 mm 3 mps 665 mmHg 54%
    19:00 +26°C° 0.1 mm 2 mps 665 mmHg 60%
    20:00 +25°C° 0.1 mm 2 mps 665 mmHg 65%
    21:00 +24°C° 0.6 mm 3 mps 666 mmHg 70%
    22:00 +24°C° 0.6 mm 3 mps 666 mmHg 75%
    23:00 +22°C° 0.6 mm 4 mps 666 mmHg 80%

    25 January, Saturday

    Time Temperature Precipitation Wind Pressure Humidity
    00:00 +22°C° 0.2 mm 5 mps 666 mmHg 80%
    01:00 +21°C° 0.2 mm 5 mps 666 mmHg 79%
    02:00 +21°C° 0.2 mm 6 mps 666 mmHg 79%
    03:00 +21°C° 0 mm 5 mps 666 mmHg 79%
    04:00 +21°C° 0 mm 5 mps 666 mmHg 80%
    05:00 +21°C° 0 mm 4 mps 666 mmHg 80%
    06:00 +21°C° 0.1 mm 4 mps 667 mmHg 76%
    07:00 +22°C° 0.1 mm 5 mps 667 mmHg 73%
    08:00 +23°C° 0.1 mm 5 mps 667 mmHg 69%
    09:00 +25°C° 0.1 mm 4 mps 668 mmHg 63%
    10:00 +27°C° 0.1 mm 4 mps 668 mmHg 57%
    11:00 +29°C° 0.1 mm 4 mps 668 mmHg 51%
    12:00 +29°C° 0 mm 3 mps 667 mmHg 48%
    13:00 +30°C° 0 mm 2 mps 667 mmHg 46%
    14:00 +30°C° 0 mm 2 mps 666 mmHg 44%
    15:00 +29°C° 0.5 mm 3 mps 666 mmHg 51%
    16:00 +28°C° 0.5 mm 3 mps 665 mmHg 57%
    17:00 +26°C° 0.5 mm 4 mps 664 mmHg 64%
    18:00 +26°C° 1.2 mm 4 mps 665 mmHg 67%
    19:00 +25°C° 1.2 mm 4 mps 665 mmHg 69%
    20:00 +23°C° 1.2 mm 4 mps 665 mmHg 72%
    21:00 +24°C° 0 mm 3 mps 665 mmHg 71%
    22:00 +24°C° 0 mm 3 mps 666 mmHg 71%
    23:00 +24°C° 0 mm 2 mps 666 mmHg 70%

    26 January, Sunday

    Time Temperature Precipitation Wind Pressure Humidity
    00:00 +24°C° 0 mm 2 mps 666 mmHg 73%
    01:00 +23°C° 0 mm 2 mps 666 mmHg 75%
    02:00 +23°C° 0 mm 2 mps 665 mmHg 78%
    03:00 +23°C° 0 mm 2 mps 665 mmHg 77%
    04:00 +21°C° 0 mm 3 mps 665 mmHg 76%
    05:00 +21°C° 0 mm 3 mps 665 mmHg 76%
    06:00 +24°C° 0 mm 3 mps 666 mmHg 69%
    07:00 +25°C° 0 mm 3 mps 666 mmHg 62%
    08:00 +26°C° 0 mm 3 mps 667 mmHg 56%
    09:00 +28°C° 0 mm 4 mps 667 mmHg 49%
    10:00 +32°C° 0 mm 4 mps 668 mmHg 42%
    11:00 +34°C° 0 mm 4 mps 668 mmHg 35%
    12:00 +34°C° 0 mm 3 mps 667 mmHg 33%
    13:00 +35°C° 0 mm 2 mps 667 mmHg 32%
    14:00 +35°C° 0 mm 2 mps 666 mmHg 30%
    15:00 +34°C° 0 mm 2 mps 666 mmHg 33%
    16:00 +33°C° 0 mm 3 mps 665 mmHg 35%
    17:00 +31°C° 0 mm 3 mps 665 mmHg 38%
    18:00 +30°C° 0 mm 3 mps 665 mmHg 41%
    19:00 +30°C° 0 mm 2 mps 665 mmHg 43%
    20:00 +29°C° 0 mm 2 mps 665 mmHg 46%
    21:00 +28°C° 0 mm 2 mps 665 mmHg 49%
    22:00 +27°C° 0 mm 2 mps 665 mmHg 52%
    23:00 +27°C° 0 mm 2 mps 666 mmHg 55%
    Show more